Tracking 28911 objects as of 22-May-2024
HD Live streaming from Space Station
objects crossing your sky now

ASTROCAST-0105

Track ASTROCAST-0105 now!
10-day predictions
ASTROCAST-0105 is classified as:


NORAD ID: 47517
Int'l Code: 2021-006DH
Perigee: 491.8 km
Apogee: 497.5 km
Inclination: 97.3 °
Period: 94.4 minutes
Semi major axis: 6865 km
RCS: Unknown
Launch date: January 24, 2021
Source: (SWTZ)
Launch site: AIR FORCE EASTERN TEST RANGE (AFETR)

Uplink (MHz):
Downlink (MHz):
Beacon (MHz):
Mode:
Call sign:
Status: Unknown

Your satellite tracking list
Your tracking list is empty




NASA's NSSDC Master Catalog

Two Line Element Set (TLE):
1 47517U 21006DH  24142.68803151  .00015764  00000-0  61308-3 0  9992
2 47517  97.3318 193.2608 0004163  21.9900 338.1516 15.26104496184021
Source of the keplerian elements: AFSPC